STARLINK-11556, 62838

Orbit data source: Space-Track

STARLINK-11556, 62838 is a payload satellite owned by SpaceX/Seattle (US) in LEO that was launched on Mon, 27 Jan 2025 UTC via an FALCON 9 launch vehicle from the Air Force Eastern Test Range (AFETR). Payload-class satellites include a variety of spacecraft equipped with specific instruments for various scientific and technological missions. These include communications satellites like Starlink; space stations such as the ISS; scientific satellites like the Hubble; Earth observation satellites from companies like Planet Labs, Umbra, and HawkEye 360; GPS; miniature CubeSats for education and research; and military/defense satellites.

Loading next visibility...
Identifier
62838, 2025-019K
Orbit
LEO
Country
Flag of USUS
Related business
Manufacturer
SpaceX/Seattle
Mission
Operational Commercial Communications
Bus & Motor
STARLINK V2MD, Unknown motor
Mass
960 kg wet, ~910 kg dry
Launch date (UTC)
2025-01-27 (1 year ago)
Launch vehicle
FALCON 9
Launch site
Air Force Eastern Test Range (AFETR)
Object type
Payload
Rocket body
Debris
Shape & HBR
Box + 2 Pan, 18.1 m
Radar Cross Section
36.964 m², Large (>1 m²)

Expand to show TLE details & history
Last TLE update: 1 day ago

TLE from 1 day ago
0 STARLINK-11556
1 62838U 25019K   26125.60057219  .00204524  00000-0  15615-2 0  9997
2 62838  42.9995 322.7340 0001205 240.5342 119.5405 15.70793307 72833
Epoch: 2026-05-05T14:24Z
TLE epoch observation values (Epoch: 2026-05-05T14:24:49.437Z)
Latitude
-0.00004°
Longitude
-116.94511°
Altitude
356.8 km
Speed
7.697 km/s
True Right ascension
21h 30m 56s
True Declination
0° 00' 00"
Sunlit
Object was in daylight at epoch
Visualization orbit readout
Latitude
Unknown
Longitude
Unknown
Altitude
Unknown
Speed
Unknown
Apparent Right ascension
Unknown
Apparent Declination
Unknown
Sunlit
N/A
Visualization observer readout
Local Sidereal Time
01:07:30
Azimuth
Unknown
Elevation
Unknown
Doppler factor
Unknown
Orbital elements
Apogee altitude
359.422 km
Perigee altitude
357.798 km
Semi-major axis
6,736.747 km
Eccentricity
0.00012
Inclination
42.9995°
RAAN
322.734°
Arg. of periapsis
240.5342°
True anomaly
119.55251°
Mean anomaly
119.5405°
Eccentric anomaly
119.54651°
Mean motion
3.92525 °/min
Orbital period
91.71 mins
BSTAR
0.0015615
Loading maneuver chart data...
Computing Atmospheric mass density...
Loading historical data...
Loading historical data...
Loading historical data...
Loading historical data...
Loading historical data...
Loading historical data...
Loading historical data...

Documentation

Showing up to 5 results
|